Track STARLINK-2098 now! 10-day predictions STARLINK-2098 is classified as:
1 47378U 21005AF 21110.58335648 -.00066185 00000-0 -72122-3 0 9999 2 47378 53.0538 129.5401 0004155 3.2470 350.2619 15.62798705 1768